Home > Weather > Ribeirão Prêto > Past weeks

Flag for Brazil Past Weather in Ribeirão Prêto, São Paulo, Brazil — Yesterday and Last 2 Weeks

Now
84 °F

Passing clouds.


Feels Like: 82 °F
Forecast: 63 / 87 °F
Wind: 8 mph from Northeast

Location: Leite Lopes / Ribeir

Current Time: Jul 25, 2016 at 2:50:47 PM

Latest Report: Jul 25, 2016 at 2:00 PM


Visibility: N/A

Pressure: 30.07 "Hg (28.26 "Hg at 549m altitude)

Humidity: 27%

Dew Point: 46 °F

Location of Ribeirão PrêtoLocation

Past Weather in Ribeirão Prêto — Graph

°F

Ribeirão Prêto Temperature Yesterday

Maximum temperature yesterday: 88 °F (at 4:00 PM)
Minimum temperature yesterday: 59 °F (at 6:00 AM)
Average temperature yesterday: 73 °F

High & Low Weather Summary for the Past Weeks

 TemperatureHumidityPressure
High90 °F (Jul 11, 2:00 PM)94% (Jul 11, 2:00 AM)30.18 "Hg (Jul 11, 2:00 AM)
Low39 °F (Jul 18, 6:00 AM)14% (Jul 18, 3:00 PM)29.92 "Hg (Jul 15, 3:00 PM)
Average67 °F60%30.06 "Hg
* Reported Jul 10 1:00 PM — Jul 25 1:00 PM, Ribeirão Prêto, Weather by CustomWeather, © 2016

Note: Actual official high and low records may vary slightly from our data, if they occured in-between our weather recording intervals... More about our weather records

Advertising

Ribeirão Prêto Weather History for the Previous 24 Hours

Scroll right to see more
 ConditionsComfort  
Time TempWeatherWind HumidityBarometerVisibility
1:00 PM
Mon, Jul 25
84 °FPassing clouds.8 mph27%30.09 "HgN/A
12:00 PM82 °FSunny.8 mph30%30.12 "Hg10 mi
11:00 AM79 °FSunny.9 mph42%30.15 "Hg10 mi
10:00 AM75 °FSunny.6 mph50%30.18 "Hg10 mi
9:00 AM68 °FSunny.8 mph60%30.18 "Hg10 mi
8:00 AM63 °FSunny.No wind73%30.15 "Hg10 mi
7:00 AM57 °FSunny.No wind88%30.15 "Hg10 mi
6:00 AM61 °FSunny.No wind77%30.12 "Hg10 mi
5:00 AM61 °FClear.5 mph77%30.12 "Hg10 mi
4:00 AM63 °FClear.3 mph73%30.12 "Hg10 mi
3:00 AM64 °FClear.5 mph68%30.12 "Hg10 mi
2:00 AM66 °FClear.No wind64%30.12 "Hg10 mi
1:00 AM66 °FClear.5 mph64%30.15 "Hg10 mi
12:00 AM68 °FClear.3 mph60%30.12 "Hg10 mi
11:00 PM
Sun, Jul 24
70 °FClear.5 mph57%30.15 "Hg10 mi
10:00 PM70 °FClear.3 mph60%30.15 "Hg10 mi
9:00 PM73 °FClear.3 mph53%30.12 "Hg10 mi
8:00 PM75 °FClear.3 mph50%30.12 "Hg10 mi
7:00 PM77 °FClear.5 mph44%30.09 "Hg10 mi
6:00 PM82 °FClear.5 mph35%30.09 "Hg10 mi
5:00 PM86 °FClear.3 mph29%30.09 "Hg10 mi
4:00 PM88 °FSunny.3 mph27%30.09 "Hg10 mi
3:00 PM86 °FSunny.5 mph29%30.09 "Hg10 mi
2:00 PM86 °FSunny.7 mph29%30.09 "Hg10 mi
Weather by CustomWeather, © 2016

See weather overviewHow to use our weather pages